AFL3457 UNKL-UNNT

Flight info

Callsign AFL3457
Flight time N/A
Altitude 38000
Route APRU2F APRUS B926 NATIR NATI1K
Aircraft A339/H-S/L

Departure

Time 2026-05-07 10:06
Airport Krasnoyarsk International Airport (UNKL)

Arrival

Time N/A
Airport Novosibirsk Tolmachevo Airport (UNNT)
Time Latitude Longitude Altitude Speed Heading
2026-05-07 10:05 56.16809 92.05937 11477 ft 325 kts 248°
2026-05-07 10:06 56.15957 92.02054 11973 ft 342 kts 248°
2026-05-07 10:06 56.15084 91.98080 12729 ft 350 kts 248°
2026-05-07 10:06 56.14188 91.94009 13634 ft 354 kts 248°
2026-05-07 10:06 56.13279 91.89881 14517 ft 358 kts 248°
2026-05-07 10:07 56.12366 91.85744 15371 ft 363 kts 248°
2026-05-07 10:07 56.11441 91.81557 16215 ft 367 kts 248°
2026-05-07 10:07 56.10500 91.77309 17045 ft 372 kts 248°
2026-05-07 10:07 56.09541 91.72989 17862 ft 376 kts 248°
2026-05-07 10:08 56.08573 91.68632 18660 ft 381 kts 248°
2026-05-07 10:08 56.05951 91.56883 20670 ft 392 kts 248°
2026-05-07 10:09 56.04589 91.50806 21621 ft 398 kts 248°
2026-05-07 10:09 56.02466 91.41365 22991 ft 407 kts 248°
2026-05-07 10:09 56.01401 91.36649 23633 ft 411 kts 248°
2026-05-07 10:10 56.00329 91.31915 24256 ft 415 kts 248°
2026-05-07 10:10 55.99279 91.27093 24870 ft 418 kts 250°
2026-05-07 10:10 55.98376 91.22155 25457 ft 422 kts 253°
2026-05-07 10:10 55.97636 91.17069 26031 ft 426 kts 257°
2026-05-07 10:11 55.97017 91.11914 26591 ft 430 kts 258°
2026-05-07 10:11 55.96405 91.06686 27137 ft 433 kts 258°
2026-05-07 10:11 55.95789 91.01411 27668 ft 437 kts 258°
2026-05-07 10:11 55.95162 90.96079 28184 ft 440 kts 258°
2026-05-07 10:12 55.94529 90.90733 28683 ft 444 kts 258°
2026-05-07 10:12 55.93893 90.85394 29165 ft 447 kts 258°
2026-05-07 10:12 55.93244 90.79967 29637 ft 450 kts 258°
2026-05-07 10:12 55.92585 90.74487 30089 ft 454 kts 258°
2026-05-07 10:13 55.91917 90.68958 30531 ft 457 kts 258°
2026-05-07 10:13 55.91244 90.63414 30959 ft 460 kts 258°
2026-05-07 10:13 55.90572 90.57899 31370 ft 463 kts 258°
2026-05-07 10:13 55.89885 90.52280 31807 ft 465 kts 258°